Change the Weather History Date:

Friday, April 11, 2014

  Actual Average Record
Temperature  
Mean Temperature 38 °F -  
Max Temperature 53 °F 49 °F 78 °F (1977)
Min Temperature 24 °F 24 °F -2 °F (1952)
Degree Days  
Heating Degree Days 28    
Moisture  
Dew Point 27 °F    
Average Humidity 67    
Maximum Humidity 90    
Minimum Humidity 37    
Precipitation  
Precipitation 0.08 in - - ()
Sea Level Pressure  
Sea Level Pressure 29.93 in    
Wind  
Wind Speed 2 mph (SW)    
Max Wind Speed 16 mph    
Max Gust Speed 24 mph    
Visibility 10 miles    
Events Rain    
Averages and records for this station are not official NWS values.
T = Trace of Precipitation, MM = Missing Value Source: NWS Daily Summary

Daily Weather History Graph

Daily Weather History Graph

Search for Another Location

Airport or City:

Trip Planner

Search our weather history database for the weather conditions in past years. The results will help you decide how hot, cold, wet, or windy it might be!

Date:

Astronomy

Apr. 11, 2014 Rise Set
Actual Time 6:20 AM CDT 7:40 PM CDT
Civil Twilight 5:49 AM CDT 8:11 PM CDT
Nautical Twilight 5:12 AM CDT 8:48 PM CDT
Astronomical Twilight 4:32 AM CDT 9:28 PM CDT
Moon 4:11 PM CDT (4/11) 4:26 AM CDT (4/11)
Length of Visible Light 14h 22m
Length of Day
13h 20m
Waxing Gibbous, 87% of the Moon is Illuminated
Apr 11
Waxing Gibbous
Apr 15
Full
Apr 22
Last Quarter
Apr 29
New
May 6
First Quarter

Hourly Weather History & Observations

Time (CDT) Temp. Windchill Dew Point Humidity Pressure Visibility Wind Dir Wind Speed Gust Speed Precip Events Conditions
12:15 AM 29.3 °F - 5.7 °F 37% 29.88 in 10.0 mi Calm Calm - N/A   Clear
12:35 AM 29.3 °F - 6.8 °F 39% 29.89 in 10.0 mi Calm Calm - N/A   Clear
12:55 AM 29.3 °F - 7.7 °F 40% 29.89 in 10.0 mi Calm Calm - N/A   Scattered Clouds
1:15 AM 27.3 °F - 5.4 °F 39% 29.89 in 10.0 mi Calm Calm - N/A   Clear
1:35 AM 28.0 °F - 15.6 °F 60% 29.89 in 10.0 mi Calm Calm - N/A   Clear
1:55 AM 26.6 °F - 8.4 °F 46% 29.88 in 10.0 mi Calm Calm - N/A   Clear
2:15 AM 26.6 °F - 10.9 °F 52% 29.89 in 10.0 mi Calm Calm - N/A   Clear
2:35 AM 26.6 °F - 15.4 °F 63% 29.89 in 10.0 mi Calm Calm - N/A   Clear
2:55 AM 25.5 °F - 11.3 °F 55% 29.90 in 10.0 mi Calm Calm - N/A   Clear
3:15 AM 25.5 °F - 9.1 °F 50% 29.90 in 10.0 mi Calm Calm - N/A   Scattered Clouds
3:35 AM 27.9 °F - 11.7 °F 51% 29.90 in 10.0 mi Calm Calm - N/A   Overcast
3:55 AM 29.3 °F - 15.4 °F 56% 29.90 in 10.0 mi Calm Calm - N/A   Mostly Cloudy
4:15 AM 28.0 °F - 12.9 °F 53% 29.90 in 10.0 mi Calm Calm - N/A   Scattered Clouds
4:35 AM 26.6 °F - 12.6 °F 55% 29.91 in 10.0 mi Calm Calm - N/A   Scattered Clouds
4:55 AM 26.6 °F - 12.2 °F 55% 29.91 in 10.0 mi Calm Calm - N/A   Scattered Clouds
5:15 AM 24.8 °F - 10.4 °F 54% 29.91 in 10.0 mi Calm Calm - N/A   Scattered Clouds
5:35 AM 24.8 °F - 10.2 °F 54% 29.91 in 10.0 mi Calm Calm - N/A   Clear
5:55 AM 24.8 °F - 10.4 °F 54% 29.91 in 10.0 mi Calm Calm - N/A   Clear
6:35 AM 24.6 °F - 11.1 °F 57% 29.91 in 10.0 mi Calm Calm - N/A   Clear
6:55 AM 25.3 °F - 12.7 °F 59% 29.92 in 10.0 mi Calm Calm - N/A   Clear
7:15 AM 31.8 °F - 19.0 °F 59% 29.92 in 10.0 mi Calm Calm - N/A   Mostly Cloudy
7:35 AM 31.8 °F - 19.6 °F 61% 29.93 in 10.0 mi Calm Calm - N/A   Scattered Clouds
7:55 AM 32.5 °F - 21.4 °F 64% 29.93 in 10.0 mi Calm Calm - N/A   Scattered Clouds
8:15 AM 36.5 °F 33.9 °F 25.7 °F 65% 29.94 in 10.0 mi SSW 3.5 mph - N/A   Scattered Clouds
8:35 AM 37.6 °F - 26.2 °F 64% 29.94 in 10.0 mi Calm Calm - N/A   Mostly Cloudy
8:55 AM 39.2 °F 35.0 °F 26.2 °F 60% 29.94 in 10.0 mi WSW 5.8 mph - N/A   Mostly Cloudy
9:15 AM 40.6 °F 34.3 °F 27.5 °F 59% 29.95 in 10.0 mi WSW 10.4 mph 16.1 mph N/A   Mostly Cloudy
9:35 AM 41.5 °F 35.9 °F 28.2 °F 59% 29.95 in 10.0 mi WSW 9.2 mph - N/A   Light Drizzle
9:55 AM 41.5 °F 36.4 °F 30.7 °F 65% 29.96 in 10.0 mi West 8.1 mph - N/A Rain Light Rain
10:15 AM 39.7 °F 35.6 °F 31.1 °F 71% 29.95 in 10.0 mi WSW 5.8 mph - N/A Rain Light Rain
10:35 AM 39.2 °F 35.0 °F 32.0 °F 75% 29.96 in 7.0 mi WSW 5.8 mph - N/A Rain Rain
10:55 AM 39.2 °F 35.0 °F 32.0 °F 75% 29.96 in 7.0 mi WSW 5.8 mph - N/A Rain Light Rain
11:15 AM 39.2 °F 37.0 °F 32.2 °F 76% 29.96 in 2.5 mi WSW 3.5 mph - 0.03 in Rain Rain
11:35 AM 39.2 °F 35.0 °F 34.7 °F 84% 29.95 in 5.0 mi SSW 5.8 mph - 0.04 in Rain Light Rain
11:55 AM 38.8 °F 35.4 °F 35.6 °F 88% 29.95 in 7.0 mi South 4.6 mph - 0.04 in Rain Light Rain
12:15 PM 39.2 °F 35.0 °F 36.5 °F 90% 29.95 in 10.0 mi South 5.8 mph - N/A   Overcast
12:35 PM 39.2 °F 35.0 °F 36.5 °F 90% 29.95 in 10.0 mi South 5.8 mph - N/A   Overcast
12:55 PM 41.5 °F 36.4 °F 38.3 °F 88% 29.94 in 10.0 mi South 8.1 mph - N/A   Overcast
1:15 PM 42.8 °F 38.0 °F 38.8 °F 86% 29.93 in 10.0 mi South 8.1 mph - N/A   Scattered Clouds
1:35 PM 44.4 °F 40.5 °F 38.8 °F 81% 29.93 in 10.0 mi South 6.9 mph - N/A   Clear
1:55 PM 46.2 °F 41.2 °F 40.1 °F 79% 29.92 in 10.0 mi SW 10.4 mph - N/A   Scattered Clouds
2:15 PM 51.1 °F - 42.4 °F 72% 29.93 in 10.0 mi SW 11.5 mph 17.3 mph N/A   Mostly Cloudy
2:35 PM 51.8 °F - 40.8 °F 66% 29.93 in 10.0 mi SSW 6.9 mph - N/A   Mostly Cloudy
2:55 PM 46.8 °F - 36.7 °F 68% 29.93 in 10.0 mi SSW 11.5 mph 17.3 mph N/A   Mostly Cloudy
3:15 PM 51.3 °F - 40.6 °F 67% 29.92 in 10.0 mi SSW 10.4 mph - N/A Rain Light Rain
3:35 PM 51.8 °F - 37.4 °F 58% 29.92 in 10.0 mi SW 8.1 mph - N/A   Overcast
3:55 PM 51.8 °F - 34.7 °F 52% 29.91 in 10.0 mi WSW 8.1 mph - N/A   Mostly Cloudy
4:15 PM 47.3 °F - 32.9 °F 57% 29.92 in 7.0 mi NNW 16.1 mph 24.2 mph N/A Rain Light Rain
4:35 PM 41.9 °F 39.0 °F 34.3 °F 75% 29.93 in 2.5 mi North 4.6 mph 9.2 mph 0.04 in Rain Rain
4:55 PM 46.8 °F - 40.1 °F 78% 29.93 in 10.0 mi Calm Calm - 0.04 in   Mostly Cloudy
5:15 PM 49.3 °F - 40.6 °F 72% 29.92 in 10.0 mi South 3.5 mph - N/A   Clear
5:35 PM 49.3 °F - 39.9 °F 70% 29.92 in 10.0 mi Calm Calm - N/A   Clear
5:55 PM 51.8 °F - 42.6 °F 71% 29.92 in 10.0 mi SSW 3.5 mph - N/A   Scattered Clouds
6:15 PM 51.8 °F - 42.4 °F 70% 29.92 in 10.0 mi Calm Calm - N/A   Scattered Clouds
6:35 PM 49.3 °F - 40.8 °F 73% 29.92 in 10.0 mi South 3.5 mph - N/A   Clear
6:55 PM 49.3 °F - 39.7 °F 70% 29.92 in 10.0 mi Calm Calm - N/A   Scattered Clouds
7:15 PM 44.1 °F - 34.3 °F 69% 29.93 in 10.0 mi Calm Calm - N/A   Clear
7:35 PM 41.5 °F - 32.5 °F 70% 29.93 in 10.0 mi Calm Calm - N/A   Scattered Clouds
7:55 PM 39.2 °F - 31.1 °F 73% 29.93 in 10.0 mi Calm Calm - N/A   Scattered Clouds
8:15 PM 39.0 °F - 31.3 °F 74% 29.94 in 10.0 mi Calm Calm - N/A   Clear
8:35 PM 37.8 °F - 31.1 °F 77% 29.95 in 10.0 mi Calm Calm - N/A   Clear
8:55 PM 36.5 °F - 30.2 °F 78% 29.96 in 10.0 mi Calm Calm - N/A   Clear
9:15 PM 36.5 °F - 31.5 °F 82% 29.96 in 10.0 mi Calm Calm - N/A   Clear
9:35 PM 36.5 °F - 31.1 °F 81% 29.98 in 10.0 mi Calm Calm - N/A   Clear
9:55 PM 34.9 °F - 30.0 °F 82% 29.98 in 10.0 mi Calm Calm - N/A   Clear
10:15 PM 34.0 °F - 29.8 °F 85% 29.99 in 10.0 mi Calm Calm - N/A   Clear
10:35 PM 34.0 °F - 28.8 °F 81% 29.98 in 10.0 mi Calm Calm - N/A   Clear
10:55 PM 34.0 °F - 28.9 °F 82% 29.98 in 10.0 mi Calm Calm - N/A   Clear
11:15 PM 34.0 °F - 28.4 °F 80% 29.98 in 10.0 mi Calm Calm - N/A   Clear
11:35 PM 34.0 °F - 28.8 °F 81% 29.98 in 10.0 mi Calm Calm - N/A   Clear
11:55 PM 34.0 °F - 29.1 °F 82% 29.98 in 10.0 mi Calm Calm - N/A   Clear